Temp
59 60 60 60 60 60 60 61 63 62 64 64 64 64 65 65 64 65 67 66 67 67 65 64 63 63 64 65 64 63 60 57 55 58 57 55 54 53 54 54 56 56 57
57 58 57 57 58 58 59 59 60 61 62 62 61 63 64 64 65 66 65 66 65 65 65 64 64 62 66 62 62 61 58 58 54 53 52 54 53 53 55 52 55 55 56
57 55 54 56 57 56 57 59 59 59 60 61 61 60 60 61 62 62 62 65 65 66 64 64 63 62 63 64 63 62 59 60 53 52 52 45 48 46 49 52 53 53 51
54 55 55 56 56 55 55 57 58 58 60 59 58 57 56 56 57 60 62 63 64 64 65 65 64 64 62 62 62 63 62 57 55 51 54 51 49 48 47 48 48 49 51
53 54 56 58 57 56 54 54 56 57 56 56 56 54 53 54 54 55 56 57 60 62 64 65 64 62 62 62 61 59 59 59 61 52 51 49 47 46 46 46 46 48 49
51 53 55 56 55 55 54 54 55 54 54 54 54 52 51 51 52 52 53 53 55 57 59 62 63 63 61 60 60 60 58 59 58 57 55 54 51 53 47 43 44 45 50
50 51 51 52 52 52 53 55 53 52 52 52 52 52 51 51 51 52 52 53 53 53 54 56 58 60 60 60 60 59 59 58 57 57 56 56 56 53 52 51 49 45 47
48 50 50 49 50 51 50 50 50 50 50 50 50 50 51 51 52 52 51 51 51 52 53 54 55 57 58 59 59 58 58 58 57 57 56 56 55 54 54 53 49 44 43
49 50 49 48 48 47 47 48 48 48 48 48 48 48 49 50 50 50 50 50 50 55 52 52 53 54 55 56 57 58 58 55 55 54 56 54 54 53 53 52 51 50 44
50 48 48 46 46 46 45 46 47 46 46 46 46 48 48 50 50 49 48 49 49 49 49 49 49 50 51 52 53 55 55 54 54 54 54 53 50 50 49 48 48 48 48
48 47 46 45 45 44 44 44 44 45 45 45 46 45 46 48 48 46 46 46 46 45 45 46 46 47 47 48 48 48 48 49 50 49 49 47 47 45 45 44 44 44 44
49 47 45 43 42 41 41 41 42 43 44 44 44 44 44 44 45 43 43 44 43 43 43 43 43 44 44 44 44 45 45 47 45 45 44 42 44 41 41 41 40 40 41
48 46 44 43 41 40 40 41 41 41 42 43 43 42 41 41 41 41 42 43 42 41 41 41 40 40 41 40 40 42 43 42 42 42 42 41 41 39 39 39 38 38 38
47 45 42 41 40 40 40 40 42 43 42 42 41 39 39 39 39 40 40 41 41 40 39 39 39 39 38 38 37 37 36 37 39 39 39 39 39 38 37 36 35 35 35
46 45 41 38 37 38 39 40 43 45 45 41 42 42 42 40 40 39 40 39 39 39 39 39 39 40 42 41 35 35 35 35 36 36 38 39 41 42 40 37 34 34 34
45 44 42 39 38 37 38 41 42 43 45 43 43 43 43 42 41 41 40 40 39 40 40 40 41 41 42 43 41 37 36 35 35 34 34 35 36 38 42 41 40 38 34
44 42 40 38 37 37 39 40 41 42 42 42 42 41 41 40 39 39 38 37 37 37 37 37 39 40 41 42 40 37 34 33 32 31 30 32 34 33 33 36 37 37 39
44 41 38 37 37 38 39 39 40 40 40 40 40 40 39 38 37 37 36 35 35 35 35 35 36 37 40 41 40 37 27 25 23 23 22 23 27 33 33 29 29 30 31
42 39 38 37 37 38 40 39 38 38 38 37 38 38 38 37 36 35 34 34 33 33 33 34 34 34 30 41 39 29 20 22 23 27 28 29 29 39 40 30 27 28 29
41 38 37 38 38 39 40 38 37 37 36 37 37 37 37 36 34 34 33 34 34 33 30 24 21 34 21 42 40 33 29 26 27 28 30 38 35 39 39 28 26 25 26
39 39 38 37 36 37 39 37 36 35 37 38 38 37 37 35 35 34 34 30 29 30 30 31 31 26 29 32 41 39 30 29 29 28 29 30 38 37 37 37 27 28 30
39 38 36 37 37 37 39 37 35 38 39 39 38 37 37 37 36 33 31 26 24 24 24 25 25 27 27 38 39 40 38 35 30 29 29 28 37 37 37 33 36 37 34
39 39 38 38 38 37 37 37 38 39 39 39 38 33 32 32 31 27 27 27 27 26 26 28 26 26 29 27 36 38 38 37 30 29 33 36 36 36 32 34 36 32 25
40 40 39 38 39 39 38 37 39 40 36 33 32 31 30 30 29 30 30 28 27 26 28 28 27 24 26 26 28 29 27 33 32 32 26 32 33 34 32 29 28 26 25
43 42 41 40 40 41 38 37 37 36 33 31 30 30 30 30 28 29 28 29 27 28 27 27 27 25 25 29 34 33 30 28 32 31 26 25 24 22 24 24 25 24 24
43 42 42 42 42 42 41 38 38 36 33 31 30 29 28 27 28 27 27 37 36 39 38 36 31 30 35 37 37 37 36 36 36 28 23 20 19 19 22 22 22 22 23
MSLP
1014.38 1014.38 1014.63 1014.90 1015.14 1015.30 1015.24 1015.27 1015.50 1015.58 1015.58 1015.79 1016.09 1016.29 1016.24 1016.13 1016.07 1015.95 1015.92 1016.16 1016.27 1016.45 1016.84 1017.04 1017.33 1017.47 1017.75 1017.78 1018.08 1018.46 1018.78 1019.14 1019.22 1019.95 1020.14 1020.04 1019.85 1019.96 1019.83 1019.80 1019.84 1019.99 1020.09
1014.77 1015.03 1015.29 1015.35 1015.39 1015.61 1015.80 1016.09 1016.15 1015.95 1015.80 1015.82 1015.90 1015.97 1016.00 1015.85 1015.71 1015.57 1015.77 1015.94 1016.10 1016.22 1016.38 1016.51 1016.79 1017.03 1017.37 1017.44 1017.67 1017.95 1018.43 1018.51 1018.92 1019.59 1020.43 1020.23 1019.96 1019.28 1019.04 1019.28 1019.39 1019.34 1019.49
1014.95 1015.38 1015.58 1015.62 1015.67 1015.86 1015.96 1015.92 1015.89 1015.99 1016.14 1016.14 1016.04 1016.03 1016.06 1016.09 1015.98 1015.83 1015.72 1015.53 1015.54 1015.57 1015.79 1015.90 1016.15 1016.52 1016.71 1016.78 1016.80 1017.24 1017.71 1018.02 1018.82 1018.94 1019.67 1020.38 1020.09 1019.66 1018.76 1018.56 1018.63 1018.79 1019.09
1015.02 1015.38 1015.53 1015.66 1015.81 1016.00 1016.02 1015.95 1016.00 1016.03 1016.10 1016.15 1016.25 1016.37 1016.46 1016.53 1016.23 1015.99 1015.73 1015.49 1015.29 1015.31 1015.36 1015.44 1015.59 1015.79 1015.98 1016.28 1016.31 1016.47 1016.80 1017.53 1018.14 1018.84 1019.02 1019.21 1019.01 1019.43 1019.18 1018.72 1018.65 1018.87 1019.03
1014.94 1015.35 1015.53 1015.64 1015.87 1016.03 1016.13 1016.15 1016.19 1016.30 1016.29 1016.20 1016.19 1016.40 1016.58 1016.64 1016.37 1016.14 1015.92 1015.61 1015.23 1015.06 1015.01 1014.96 1014.98 1015.06 1015.24 1015.44 1015.72 1016.08 1016.37 1016.71 1016.98 1017.61 1018.12 1018.71 1018.88 1018.95 1019.30 1018.89 1018.93 1018.87 1018.66
1015.34 1015.51 1015.67 1015.84 1016.14 1016.28 1016.31 1016.36 1016.48 1016.73 1016.64 1016.56 1016.62 1016.71 1016.76 1016.68 1016.48 1016.18 1015.97 1015.74 1015.44 1015.19 1014.95 1014.68 1014.52 1014.45 1014.77 1014.80 1015.06 1015.37 1015.67 1015.91 1016.27 1016.77 1017.22 1017.42 1017.68 1017.86 1018.33 1018.80 1018.82 1018.86 1018.23
1015.38 1015.71 1016.04 1016.25 1016.46 1016.59 1016.65 1016.79 1016.93 1017.13 1017.10 1017.00 1016.99 1016.95 1016.83 1016.73 1016.58 1016.38 1016.29 1016.17 1015.94 1015.74 1015.48 1015.05 1014.58 1014.40 1014.32 1014.47 1014.53 1014.89 1015.24 1015.49 1015.74 1016.05 1016.37 1016.42 1016.48 1016.88 1017.03 1017.74 1018.02 1018.85 1018.74
1015.34 1015.72 1016.05 1016.41 1016.70 1016.97 1017.16 1017.33 1017.51 1017.64 1017.56 1017.43 1017.34 1017.14 1016.97 1016.81 1016.68 1016.57 1016.48 1016.50 1016.34 1016.07 1015.68 1015.28 1014.92 1014.55 1014.29 1014.46 1014.51 1014.59 1014.88 1015.11 1015.32 1015.54 1015.91 1016.01 1016.17 1016.45 1016.65 1016.97 1017.66 1018.23 1018.40
1015.32 1015.79 1016.28 1016.70 1017.08 1017.42 1017.69 1017.83 1017.92 1018.00 1017.99 1017.83 1017.70 1017.39 1017.14 1016.94 1016.88 1016.83 1016.71 1016.63 1016.52 1016.31 1016.13 1015.80 1015.45 1015.08 1014.89 1014.78 1014.68 1014.55 1014.94 1014.96 1015.10 1015.18 1015.44 1015.79 1016.05 1016.26 1016.45 1016.67 1016.92 1017.19 1017.59
1015.41 1016.04 1016.61 1017.14 1017.54 1017.78 1018.06 1018.18 1018.31 1018.34 1018.30 1018.11 1017.90 1017.69 1017.44 1017.15 1017.11 1017.03 1016.91 1016.92 1016.82 1016.69 1016.51 1016.24 1015.93 1015.65 1015.37 1015.14 1014.94 1014.90 1015.17 1015.20 1015.31 1015.30 1015.46 1015.47 1015.75 1016.01 1016.22 1016.47 1016.76 1017.14 1017.50
1015.50 1016.22 1016.88 1017.45 1017.87 1018.18 1018.43 1018.56 1018.64 1018.61 1018.51 1018.32 1018.17 1017.99 1017.81 1017.66 1017.55 1017.56 1017.18 1017.32 1017.23 1017.10 1016.96 1016.75 1016.44 1016.20 1016.02 1015.85 1015.74 1015.80 1015.77 1015.75 1015.90 1015.90 1015.96 1016.11 1016.30 1016.49 1016.67 1016.81 1016.95 1017.14 1017.53
1015.55 1016.34 1017.01 1017.62 1018.15 1018.51 1018.69 1018.78 1018.79 1018.78 1018.72 1018.54 1018.43 1018.40 1018.26 1018.14 1018.04 1017.97 1017.64 1017.76 1017.79 1017.64 1017.52 1017.34 1017.06 1016.88 1016.83 1016.77 1016.60 1016.52 1016.46 1016.29 1016.41 1016.69 1016.79 1017.13 1017.18 1017.36 1017.55 1017.64 1017.81 1017.95 1017.97
1015.74 1016.47 1017.23 1017.81 1018.31 1018.74 1018.93 1018.89 1018.86 1018.86 1018.82 1018.70 1018.74 1018.78 1018.72 1018.66 1018.63 1018.55 1018.38 1018.27 1018.21 1018.18 1017.98 1017.81 1017.79 1017.78 1017.80 1017.53 1017.37 1017.30 1017.17 1017.26 1017.64 1017.59 1017.52 1017.78 1017.71 1017.84 1018.10 1018.21 1018.34 1018.53 1018.59
1015.75 1016.54 1017.38 1018.01 1018.50 1018.87 1019.02 1018.91 1018.83 1018.78 1018.88 1018.93 1019.05 1019.16 1019.18 1019.20 1019.17 1019.17 1018.95 1018.80 1018.61 1018.50 1018.61 1018.59 1018.66 1018.66 1018.51 1018.34 1018.09 1018.14 1018.16 1018.15 1018.38 1018.36 1018.36 1018.33 1018.29 1018.37 1018.52 1018.73 1018.90 1018.99 1018.94
1015.86 1016.54 1017.36 1018.14 1018.57 1018.87 1019.05 1019.06 1018.87 1018.81 1018.85 1019.08 1019.25 1019.31 1019.42 1019.46 1019.48 1019.59 1019.34 1019.26 1019.23 1019.25 1019.18 1019.14 1019.05 1019.00 1018.86 1018.93 1019.04 1019.06 1018.93 1019.08 1019.28 1019.23 1019.17 1019.11 1018.80 1018.79 1018.92 1019.15 1019.37 1019.31 1019.27
1015.70 1016.48 1017.29 1018.07 1018.60 1018.91 1019.10 1019.10 1019.01 1018.95 1019.04 1019.21 1019.38 1019.42 1019.53 1019.66 1019.79 1019.72 1019.78 1019.90 1019.91 1019.80 1019.47 1019.45 1019.57 1019.78 1019.77 1019.80 1019.78 1019.70 1019.77 1019.99 1020.08 1020.04 1020.05 1019.88 1019.62 1019.57 1019.41 1019.44 1019.54 1019.48 1019.70
1015.51 1016.39 1017.21 1017.94 1018.45 1018.81 1018.95 1019.20 1019.14 1019.03 1019.27 1019.45 1019.57 1019.82 1019.83 1019.98 1020.11 1020.21 1020.29 1020.37 1020.35 1020.23 1020.32 1020.28 1020.42 1020.54 1020.44 1020.46 1020.37 1020.48 1020.70 1020.91 1020.94 1020.87 1020.64 1020.48 1020.42 1020.30 1020.23 1020.24 1020.17 1019.99 1019.87
1015.52 1016.40 1017.18 1018.00 1018.35 1018.54 1018.97 1019.46 1019.38 1019.34 1019.54 1019.84 1019.95 1020.14 1020.09 1020.36 1020.50 1020.53 1020.64 1020.85 1020.92 1021.13 1021.20 1021.10 1021.14 1021.20 1021.10 1021.05 1021.07 1021.21 1021.50 1021.54 1021.54 1021.32 1021.06 1020.84 1020.75 1020.63 1020.63 1020.71 1020.60 1020.43 1020.36
1015.36 1016.30 1016.98 1017.81 1018.23 1018.58 1019.06 1019.63 1019.76 1019.59 1019.48 1019.79 1020.44 1020.46 1020.53 1020.70 1020.77 1020.88 1021.28 1021.54 1021.62 1021.75 1021.78 1021.72 1021.83 1021.87 1021.72 1021.60 1021.59 1021.80 1021.94 1022.04 1022.01 1021.71 1021.37 1021.11 1021.06 1020.80 1020.70 1020.89 1020.96 1020.85 1020.78
1015.51 1016.38 1017.11 1017.92 1018.29 1018.78 1019.15 1019.70 1019.80 1019.71 1019.46 1019.98 1020.67 1020.74 1020.88 1021.04 1021.30 1021.51 1021.67 1021.88 1022.08 1022.27 1022.40 1022.49 1022.42 1022.20 1022.00 1021.62 1021.81 1021.97 1022.13 1022.26 1022.14 1021.90 1021.59 1021.39 1021.25 1021.07 1020.94 1021.09 1021.18 1021.14 1021.07
1015.79 1016.59 1017.26 1017.81 1018.10 1018.69 1019.33 1019.61 1019.75 1019.89 1019.40 1019.98 1020.54 1020.87 1021.26 1021.56 1021.74 1021.78 1021.88 1022.14 1022.61 1022.87 1022.96 1022.91 1022.81 1022.48 1022.16 1021.96 1021.85 1021.82 1022.13 1022.14 1022.13 1022.14 1022.03 1021.83 1021.50 1021.28 1021.14 1021.00 1021.14 1021.07 1020.88
1015.96 1016.57 1017.20 1017.70 1018.12 1018.67 1019.21 1019.27 1019.50 1019.68 1019.34 1020.01 1020.47 1021.22 1021.56 1021.66 1021.76 1021.96 1022.23 1022.50 1022.98 1023.27 1023.28 1023.18 1022.97 1022.64 1022.36 1022.08 1021.91 1021.86 1021.89 1021.99 1022.19 1022.23 1022.15 1021.96 1021.60 1021.36 1021.18 1021.10 1020.95 1020.79 1020.86
1015.77 1016.38 1016.84 1017.41 1017.96 1018.40 1018.74 1018.91 1019.27 1019.31 1019.30 1019.94 1020.47 1021.10 1021.61 1021.72 1021.69 1022.06 1022.45 1022.71 1022.86 1023.01 1023.13 1023.08 1023.11 1022.93 1022.54 1022.26 1021.98 1021.87 1021.87 1021.99 1022.18 1022.18 1022.09 1021.85 1021.62 1021.45 1021.36 1021.21 1020.96 1021.06 1021.14
1015.48 1016.05 1016.71 1017.20 1017.63 1018.02 1018.35 1018.65 1018.66 1018.93 1019.44 1019.86 1020.32 1020.96 1021.55 1021.57 1021.70 1021.96 1022.14 1022.44 1022.53 1022.66 1022.81 1022.84 1022.81 1022.76 1022.64 1022.43 1022.24 1022.08 1022.04 1022.05 1022.11 1022.16 1022.15 1021.94 1021.73 1021.58 1021.45 1021.37 1021.29 1021.27 1021.26
1014.90 1015.49 1016.03 1016.54 1016.93 1017.35 1017.78 1018.06 1018.30 1018.67 1019.37 1019.75 1020.28 1020.71 1021.11 1021.54 1021.88 1021.88 1021.93 1021.93 1022.07 1022.23 1022.35 1022.36 1022.40 1022.48 1022.49 1022.28 1022.02 1021.89 1021.88 1021.93 1021.95 1021.89 1022.07 1022.14 1022.07 1021.97 1021.83 1021.69 1021.59 1021.50 1021.39
1014.40 1014.77 1015.21 1015.65 1016.07 1016.61 1017.09 1017.50 1017.89 1018.36 1018.99 1019.66 1020.05 1020.30 1020.81 1021.28 1021.69 1021.79 1021.83 1021.65 1021.65 1021.77 1021.83 1021.92 1022.00 1022.05 1022.01 1021.87 1021.79 1021.72 1021.68 1021.72 1021.70 1021.92 1022.21 1022.34 1022.30 1022.23 1022.17 1022.04 1021.86 1021.62 1021.42
Wind_Speed
3 5 6 5 7 7 8 6 5 3 2 2 2 2 5 4 4 4 8 6 6 6 6 4 4 5 7 10 9 6 7 5 3 3 2 2 5 6 5 5 7 7 8
6 5 5 5 6 5 6 6 5 3 3 1 1 1 2 3 4 3 4 5 6 6 5 5 6 7 8 6 7 7 4 4 6 4 1 3 4 5 8 5 7 9 7
9 6 6 5 5 6 5 5 5 4 2 1 0 2 2 1 1 2 3 6 7 7 7 7 5 5 7 8 9 8 9 9 3 4 5 1 7 1 1 7 7 7 6
5 6 6 5 5 4 4 5 5 5 4 3 3 2 2 2 2 2 2 4 5 6 6 7 7 9 7 8 8 8 10 5 6 2 7 3 3 5 4 2 2 3 6
9 9 7 6 5 4 4 4 5 7 6 6 6 4 3 1 2 2 4 5 5 5 7 8 9 9 6 8 9 6 8 7 9 5 2 4 2 1 3 5 3 3 4
8 7 6 7 5 4 5 6 6 6 6 6 7 6 5 4 4 4 3 3 3 4 4 6 7 7 5 6 6 8 8 9 8 6 6 7 5 9 6 3 4 4 3
8 8 8 6 5 5 5 5 6 6 6 7 7 6 6 4 3 3 2 4 3 3 5 5 4 3 5 5 4 5 7 7 7 9 8 8 8 2 3 6 5 5 3
7 8 8 7 6 6 6 6 6 5 6 6 6 6 6 3 3 2 2 2 2 3 5 6 6 6 5 5 3 3 4 4 6 8 7 7 7 6 7 8 6 4 4
8 8 7 6 7 6 6 6 6 5 6 6 5 6 5 4 2 3 3 2 3 3 4 5 6 6 6 5 3 1 3 2 4 5 6 5 4 3 5 5 5 8 4
7 7 6 7 5 6 5 6 6 5 4 5 5 4 5 5 5 3 5 5 5 5 5 5 5 6 6 6 6 4 4 4 2 2 4 3 0 2 2 3 2 2 6
8 7 6 6 6 6 5 5 5 5 5 5 4 5 5 5 5 5 6 6 5 6 6 6 6 6 7 7 6 5 5 5 4 5 5 4 4 1 1 1 0 2 2
8 7 7 7 6 5 5 5 4 4 4 4 4 5 5 6 6 5 6 6 6 6 6 5 6 7 7 7 6 6 6 7 8 6 6 5 4 4 4 3 3 3 1
7 6 6 6 5 5 4 4 4 4 4 4 4 5 6 6 6 6 6 6 5 6 7 7 8 7 7 7 7 7 8 8 6 6 6 4 4 4 3 3 3 3 2
8 6 6 5 5 4 3 2 3 3 3 4 5 5 5 5 5 5 6 6 5 6 6 7 6 6 6 6 7 7 6 6 7 7 6 6 5 4 3 3 2 1 2
7 7 7 6 5 4 3 2 2 3 2 3 4 4 5 4 4 5 7 6 7 6 6 7 8 8 9 6 6 6 7 8 8 8 8 7 8 8 6 3 3 3 3
8 7 7 7 6 5 4 3 2 2 2 4 4 4 5 5 5 7 7 6 7 7 9 10 9 8 6 13 12 9 7 7 6 6 7 8 11 12 13 10 8 5 2
8 9 8 7 6 5 4 3 2 3 4 4 4 4 5 6 6 6 6 6 7 8 8 8 7 7 7 13 14 13 7 6 5 5 4 5 5 7 6 9 9 10 10
9 8 7 6 6 5 5 3 2 4 4 4 4 4 5 5 5 5 6 6 6 6 5 6 7 6 7 12 12 12 5 4 3 3 3 3 3 3 4 3 4 5 5
7 6 7 5 5 6 5 4 3 4 5 5 3 3 4 4 5 6 6 6 5 5 4 4 5 5 5 10 10 7 4 4 4 3 3 4 3 5 7 4 4 4 4
8 9 8 7 6 6 6 5 5 5 6 5 4 4 4 4 5 6 5 4 4 4 4 3 3 5 3 7 7 4 2 3 3 4 5 8 5 7 7 4 3 3 2
10 9 8 7 6 6 6 6 5 4 7 6 5 5 5 5 5 4 5 5 4 5 4 3 2 3 3 4 7 6 2 2 2 3 3 3 7 7 7 5 1 3 2
9 9 8 7 7 7 7 7 5 5 7 6 5 5 7 6 5 5 3 3 3 4 3 2 0 2 3 3 3 4 4 3 1 1 2 4 7 7 7 6 8 6 5
8 8 8 8 7 8 7 8 7 7 7 7 6 5 5 5 5 5 4 3 3 3 3 2 1 2 1 2 4 4 5 6 1 2 5 8 8 8 5 7 7 5 2
9 9 9 9 10 10 9 8 9 8 6 7 6 5 5 4 3 3 4 3 3 3 3 3 2 2 2 2 2 1 2 3 3 3 3 6 6 5 3 3 4 2 2
10 11 11 11 12 11 9 8 9 8 6 6 5 6 5 5 4 3 4 4 3 4 3 3 3 2 2 3 4 3 2 3 4 1 1 2 2 2 3 2 3 2 3
10 11 12 11 11 11 10 9 9 9 8 6 5 5 4 4 4 4 1 4 5 4 4 5 5 3 6 5 5 6 6 6 8 1 1 1 1 2 3 3 3 2 3
Wind_Direction
26 71 84 102 102 68 66 63 88 20 147 160 172 226 235 234 234 210 221 216 218 220 213 216 219 205 205 217 211 205 205 228 173 115 287 272 241 246 225 215 213 214 213
146 119 103 93 80 90 88 101 98 53 20 52 175 182 195 234 242 252 238 223 224 232 223 213 213 203 230 218 211 199 215 238 186 172 70 264 311 251 228 202 214 215 203
166 153 139 122 109 89 77 63 44 48 83 161 343 358 360 348 314 258 260 238 222 226 222 222 212 215 222 226 217 212 202 234 238 239 167 118 227 343 272 233 214 207 199
159 153 151 133 122 111 89 65 42 32 26 29 78 114 169 213 256 279 277 280 239 243 235 230 217 223 211 220 220 216 218 201 217 218 247 284 157 193 302 292 278 209 219
159 157 156 144 122 107 87 63 53 44 28 40 49 62 48 248 264 274 299 307 307 263 242 236 241 227 213 216 216 209 206 207 223 195 158 228 250 250 203 270 292 291 230
163 152 135 130 117 85 70 65 57 41 36 42 36 40 27 348 356 349 347 328 312 301 327 271 237 234 227 206 207 212 205 209 223 208 205 200 191 222 209 237 267 253 241
156 148 137 131 113 84 60 64 61 46 28 33 28 19 16 2 350 345 339 348 349 359 347 345 327 252 228 241 207 200 209 203 208 213 220 227 233 215 205 228 236 241 269
162 160 150 134 115 95 75 74 75 60 35 30 12 6 360 348 341 4 51 40 10 343 343 346 0 6 346 298 257 195 218 201 213 210 216 224 228 211 221 226 206 218 201
163 156 140 134 121 104 88 95 82 64 40 29 7 4 353 356 46 38 42 25 359 357 7 4 359 2 8 4 339 31 306 222 225 226 221 219 240 230 232 235 216 240 249
147 140 139 132 113 107 98 82 78 73 38 26 19 11 1 38 50 47 44 34 29 22 21 16 20 15 18 15 29 35 28 18 10 328 247 222 265 198 173 195 230 248 255
155 151 146 133 123 110 99 86 70 54 30 19 18 27 17 32 43 25 54 43 40 24 29 18 23 24 23 17 38 46 34 53 42 28 6 39 23 55 24 20 65 196 175
159 158 145 140 132 124 111 97 68 43 14 5 39 43 34 32 40 33 43 39 38 28 30 30 37 29 24 21 28 43 36 43 42 38 47 37 30 40 25 17 351 328 270
146 141 136 150 145 136 126 111 80 38 16 32 60 50 43 43 38 33 37 39 42 35 31 35 37 32 27 30 26 39 48 54 47 36 46 32 31 36 13 15 8 354 11
159 153 146 150 144 139 131 98 90 75 33 60 77 67 55 49 45 34 37 37 41 48 41 38 38 39 40 36 39 46 54 57 53 48 47 43 47 52 59 65 74 68 100
170 167 158 155 154 144 132 115 72 62 81 85 100 101 90 74 60 59 51 46 43 43 53 54 43 36 39 40 37 43 50 54 53 45 39 40 61 78 74 70 44 44 40
179 164 154 155 164 165 156 117 80 68 85 81 73 83 79 73 68 63 64 60 55 48 53 51 51 42 51 55 63 66 64 60 56 54 42 35 40 37 58 72 81 82 43
172 166 165 165 161 150 138 138 107 78 74 84 84 88 92 84 80 83 81 68 58 55 51 43 36 50 54 58 61 67 57 60 55 58 56 58 43 43 35 27 29 25 32
164 160 150 151 146 129 116 143 130 113 105 93 90 92 97 101 97 91 76 66 60 58 52 51 43 42 54 61 66 70 52 53 38 49 69 75 33 37 52 29 9 10 1
152 152 141 137 138 134 134 148 148 127 113 92 76 101 108 107 99 86 85 81 78 63 50 48 50 47 15 74 76 75 43 34 8 7 11 59 23 359 42 57 23 8 2
139 142 138 143 144 143 146 161 158 148 120 117 126 100 98 96 102 105 104 94 89 76 57 27 27 34 354 59 72 63 35 32 11 4 9 11 25 13 34 67 39 10 309
139 139 147 158 151 145 157 161 151 169 119 122 124 117 122 119 121 114 119 115 118 124 126 115 37 7 29 22 58 68 65 48 29 19 357 340 345 357 352 359 34 263 276
148 152 155 161 156 163 168 167 170 161 132 143 139 152 159 153 143 132 133 114 144 147 177 177 274 337 350 14 32 26 34 59 39 338 314 300 323 335 337 348 314 320 352
161 164 162 163 172 178 177 176 180 165 151 163 158 154 178 177 155 154 179 185 192 187 206 210 231 276 315 341 358 18 26 20 51 268 304 321 309 319 340 318 319 23 6
178 171 173 185 189 190 186 192 169 172 157 165 164 172 191 188 187 190 179 175 179 186 201 208 218 265 280 273 284 284 327 325 332 318 327 325 330 333 330 359 357 337 284
181 182 187 194 200 190 194 183 177 163 171 175 182 183 185 177 183 189 182 177 206 186 196 212 192 197 250 248 242 266 248 241 263 297 6 346 341 345 336 328 328 326 319
185 190 195 195 196 193 192 184 178 174 174 185 190 186 176 175 184 172 147 204 185 183 182 185 186 239 247 268 297 306 308 307 313 51 264 281 261 277 313 313 305 298 306